Year,Month,Day,Hour,Minute,Value (Times are PST for temperature in C)
2010,08,15,00,00,23.90
2010,08,15,00,01,23.90
2010,08,15,00,02,23.90
2010,08,15,00,03,24.00
2010,08,15,00,04,24.10
2010,08,15,00,05,24.10
2010,08,15,00,06,24.00
2010,08,15,00,07,23.90
2010,08,15,00,08,23.90
2010,08,15,00,09,23.90
2010,08,15,00,10,23.90
2010,08,15,00,11,23.90
2010,08,15,00,12,23.90
2010,08,15,00,13,23.90
2010,08,15,00,14,23.90
2010,08,15,00,15,23.90
2010,08,15,00,16,23.90
2010,08,15,00,17,23.90
2010,08,15,00,18,23.90
2010,08,15,00,19,23.90
2010,08,15,00,20,23.90
2010,08,15,00,21,23.90
2010,08,15,00,22,23.90
2010,08,15,00,23,23.90
2010,08,15,00,24,23.90
2010,08,15,00,25,23.90
2010,08,15,00,26,23.90
2010,08,15,00,27,23.90
2010,08,15,00,28,23.90
2010,08,15,00,29,23.90
2010,08,15,00,30,23.90
2010,08,15,00,31,23.90
2010,08,15,00,32,23.90
2010,08,15,00,33,23.90
2010,08,15,00,34,24.00
2010,08,15,00,35,24.10
2010,08,15,00,36,24.10
2010,08,15,00,37,24.10
2010,08,15,00,38,24.10
2010,08,15,00,39,24.10
2010,08,15,00,40,24.10
2010,08,15,00,41,24.10
2010,08,15,00,42,24.10
2010,08,15,00,43,24.10
2010,08,15,00,44,24.10
2010,08,15,00,45,24.10
2010,08,15,00,46,23.90
2010,08,15,00,47,23.90
2010,08,15,00,48,23.90
2010,08,15,00,49,23.80
2010,08,15,00,50,23.80
2010,08,15,00,51,23.80
2010,08,15,00,52,23.80
2010,08,15,00,53,23.80
2010,08,15,00,54,23.80
2010,08,15,00,55,23.80
2010,08,15,00,56,23.80
2010,08,15,00,57,23.80
2010,08,15,00,58,23.80
2010,08,15,00,59,23.80
2010,08,15,01,00,23.80
2010,08,15,01,01,23.80
2010,08,15,01,02,23.80
2010,08,15,01,03,23.80
2010,08,15,01,04,23.80
2010,08,15,01,05,23.70
2010,08,15,01,06,23.70
2010,08,15,01,07,23.60
2010,08,15,01,08,23.60
2010,08,15,01,09,23.60
2010,08,15,01,10,23.60
2010,08,15,01,11,23.60
2010,08,15,01,12,23.40
2010,08,15,01,13,23.40
2010,08,15,01,14,23.40
2010,08,15,01,15,23.40
2010,08,15,01,16,23.30
2010,08,15,01,17,23.30
2010,08,15,01,18,23.30
2010,08,15,01,19,23.30
2010,08,15,01,20,23.30
2010,08,15,01,21,23.30
2010,08,15,01,22,23.30
2010,08,15,01,23,23.30
2010,08,15,01,24,23.30
2010,08,15,01,25,23.30
2010,08,15,01,26,23.30
2010,08,15,01,27,23.30
2010,08,15,01,28,23.30
2010,08,15,01,29,23.20
2010,08,15,01,30,23.20
2010,08,15,01,31,23.30
2010,08,15,01,32,23.20
2010,08,15,01,33,23.20
2010,08,15,01,34,23.20
2010,08,15,01,35,23.30
2010,08,15,01,36,23.30
2010,08,15,01,37,23.30
2010,08,15,01,38,23.30
2010,08,15,01,39,23.30
2010,08,15,01,40,23.30
2010,08,15,01,41,23.30
2010,08,15,01,42,23.40
2010,08,15,01,43,23.40
2010,08,15,01,44,23.40
2010,08,15,01,45,23.40
2010,08,15,01,46,23.60
2010,08,15,01,47,23.60
2010,08,15,01,48,23.60
2010,08,15,01,49,23.60
2010,08,15,01,50,23.60
2010,08,15,01,51,23.60
2010,08,15,01,52,23.60
2010,08,15,01,53,23.50
2010,08,15,01,54,23.40
2010,08,15,01,55,23.40
2010,08,15,01,56,23.30
2010,08,15,01,57,23.30
2010,08,15,01,58,23.30
2010,08,15,01,59,23.30
2010,08,15,02,00,23.30
2010,08,15,02,01,23.20
2010,08,15,02,02,23.20
2010,08,15,02,03,23.20
2010,08,15,02,04,23.20
2010,08,15,02,05,23.10
2010,08,15,02,06,23.10
2010,08,15,02,07,23.10
2010,08,15,02,08,23.10
2010,08,15,02,09,23.10
2010,08,15,02,10,23.10
2010,08,15,02,11,23.00
2010,08,15,02,12,22.90
2010,08,15,02,13,22.90
2010,08,15,02,14,22.90
2010,08,15,02,15,22.90
2010,08,15,02,16,22.90
2010,08,15,02,17,22.90
2010,08,15,02,18,22.90
2010,08,15,02,19,22.90
2010,08,15,02,20,22.80
2010,08,15,02,21,22.80
2010,08,15,02,22,22.80
2010,08,15,02,23,22.70
2010,08,15,02,24,22.70
2010,08,15,02,25,22.70
2010,08,15,02,26,22.60
2010,08,15,02,27,22.60
2010,08,15,02,28,22.50
2010,08,15,02,29,22.40
2010,08,15,02,30,22.40
2010,08,15,02,31,22.30
2010,08,15,02,32,22.20
2010,08,15,02,33,22.20
2010,08,15,02,34,22.10
2010,08,15,02,35,22.00
2010,08,15,02,36,22.00
2010,08,15,02,37,22.00
2010,08,15,02,38,21.90
2010,08,15,02,39,21.90
2010,08,15,02,40,21.80
2010,08,15,02,41,21.80
2010,08,15,02,42,21.70
2010,08,15,02,43,21.70
2010,08,15,02,44,21.60
2010,08,15,02,45,21.60
2010,08,15,02,46,21.60
2010,08,15,02,47,21.60
2010,08,15,02,48,21.60
2010,08,15,02,49,21.60
2010,08,15,02,50,21.60
2010,08,15,02,51,21.60
2010,08,15,02,52,21.60
2010,08,15,02,53,21.60
2010,08,15,02,54,21.60
2010,08,15,02,55,21.60
2010,08,15,02,56,21.60
2010,08,15,02,57,21.60
2010,08,15,02,58,21.60
2010,08,15,02,59,21.60
2010,08,15,03,00,21.60
2010,08,15,03,01,21.60
2010,08,15,03,02,21.60
2010,08,15,03,03,21.60
2010,08,15,03,04,21.60
2010,08,15,03,05,21.60
2010,08,15,03,06,21.60
2010,08,15,03,07,21.60
2010,08,15,03,08,21.50
2010,08,15,03,09,21.40
2010,08,15,03,10,21.40
2010,08,15,03,11,21.40
2010,08,15,03,12,21.40
2010,08,15,03,13,21.40
2010,08,15,03,14,21.40
2010,08,15,03,15,21.30
2010,08,15,03,16,21.30
2010,08,15,03,17,21.30
2010,08,15,03,18,21.30
2010,08,15,03,19,21.30
2010,08,15,03,20,21.30
2010,08,15,03,21,21.30
2010,08,15,03,22,21.20
2010,08,15,03,23,21.20
2010,08,15,03,24,21.10
2010,08,15,03,25,21.10
2010,08,15,03,26,21.10
2010,08,15,03,27,21.00
2010,08,15,03,28,21.00
2010,08,15,03,29,21.00
2010,08,15,03,30,20.90
2010,08,15,03,31,20.90
2010,08,15,03,32,20.80
2010,08,15,03,33,20.80
2010,08,15,03,34,20.70
2010,08,15,03,35,20.70
2010,08,15,03,36,20.60
2010,08,15,03,37,20.60
2010,08,15,03,38,20.50
2010,08,15,03,39,20.50
2010,08,15,03,40,20.50
2010,08,15,03,41,20.40
2010,08,15,03,42,20.40
2010,08,15,03,43,20.30
2010,08,15,03,44,20.30
2010,08,15,03,45,20.20
2010,08,15,03,46,20.20
2010,08,15,03,47,20.20
2010,08,15,03,48,20.20
2010,08,15,03,49,20.20
2010,08,15,03,50,20.20
2010,08,15,03,51,20.20
2010,08,15,03,52,20.20
2010,08,15,03,53,20.10
2010,08,15,03,54,20.20
2010,08,15,03,55,20.20
2010,08,15,03,56,20.20
2010,08,15,03,57,20.20
2010,08,15,03,58,20.20
2010,08,15,03,59,20.20
2010,08,15,04,00,20.20
2010,08,15,04,01,20.20
2010,08,15,04,02,20.20
2010,08,15,04,03,20.20
2010,08,15,04,04,20.20
2010,08,15,04,05,20.20
2010,08,15,04,06,20.20
2010,08,15,04,07,20.20
2010,08,15,04,08,20.20
2010,08,15,04,09,20.20
2010,08,15,04,10,20.20
2010,08,15,04,11,20.20
2010,08,15,04,12,20.30
2010,08,15,04,13,20.30
2010,08,15,04,14,20.30
2010,08,15,04,15,20.30
2010,08,15,04,16,20.30
2010,08,15,04,17,20.30
2010,08,15,04,18,20.30
2010,08,15,04,19,20.30
2010,08,15,04,20,20.30
2010,08,15,04,21,20.30
2010,08,15,04,22,20.20
2010,08,15,04,23,20.20
2010,08,15,04,24,20.20
2010,08,15,04,25,20.20
2010,08,15,04,26,20.10
2010,08,15,04,27,20.10
2010,08,15,04,28,19.90
2010,08,15,04,29,19.90
2010,08,15,04,30,19.90
2010,08,15,04,31,19.90
2010,08,15,04,32,19.80
2010,08,15,04,33,19.80
2010,08,15,04,34,19.80
2010,08,15,04,35,19.70
2010,08,15,04,36,19.70
2010,08,15,04,37,19.60
2010,08,15,04,38,19.60
2010,08,15,04,39,19.50
2010,08,15,04,40,19.50
2010,08,15,04,41,19.50
2010,08,15,04,42,19.40
2010,08,15,04,43,19.40
2010,08,15,04,44,19.40
2010,08,15,04,45,19.30
2010,08,15,04,46,19.30
2010,08,15,04,47,19.30
2010,08,15,04,48,19.30
2010,08,15,04,49,19.30
2010,08,15,04,50,19.30
2010,08,15,04,51,19.20
2010,08,15,04,52,19.20
2010,08,15,04,53,19.20
2010,08,15,04,54,19.20
2010,08,15,04,55,19.20
2010,08,15,04,56,19.20
2010,08,15,04,57,19.10
2010,08,15,04,58,19.10
2010,08,15,04,59,19.10
2010,08,15,05,00,19.10
2010,08,15,05,01,19.10
2010,08,15,05,02,19.10
2010,08,15,05,03,19.10
2010,08,15,05,04,19.10
2010,08,15,05,05,19.10
2010,08,15,05,06,19.00
2010,08,15,05,07,18.90
2010,08,15,05,08,18.90
2010,08,15,05,09,18.90
2010,08,15,05,10,18.90
2010,08,15,05,11,18.90
2010,08,15,05,12,18.90
2010,08,15,05,13,18.90
2010,08,15,05,14,18.90
2010,08,15,05,15,18.90
2010,08,15,05,16,18.90
2010,08,15,05,17,18.90
2010,08,15,05,18,18.90
2010,08,15,05,19,18.90
2010,08,15,05,20,18.90
2010,08,15,05,21,19.00
2010,08,15,05,22,19.10
2010,08,15,05,23,19.10
2010,08,15,05,24,19.10
2010,08,15,05,25,19.10
2010,08,15,05,26,19.10
2010,08,15,05,27,19.10
2010,08,15,05,28,19.20
2010,08,15,05,29,19.30
2010,08,15,05,30,19.40
2010,08,15,05,31,19.40
2010,08,15,05,32,19.50
2010,08,15,05,33,19.50
2010,08,15,05,34,19.60
2010,08,15,05,35,19.60
2010,08,15,05,36,19.60
2010,08,15,05,37,19.50
2010,08,15,05,38,19.50
2010,08,15,05,39,19.40
2010,08,15,05,40,19.40
2010,08,15,05,41,19.40
2010,08,15,05,42,19.30
2010,08,15,05,43,19.20
2010,08,15,05,44,19.10
2010,08,15,05,45,19.10
2010,08,15,05,46,19.10
2010,08,15,05,47,19.10
2010,08,15,05,48,19.00
2010,08,15,05,49,18.90
2010,08,15,05,50,18.90
2010,08,15,05,51,18.90
2010,08,15,05,52,18.90
2010,08,15,05,53,18.90
2010,08,15,05,54,18.90
2010,08,15,05,55,18.90
2010,08,15,05,56,18.90
2010,08,15,05,57,18.90
2010,08,15,05,58,18.90
2010,08,15,05,59,18.90
2010,08,15,06,00,18.90
2010,08,15,06,01,18.90
2010,08,15,06,02,18.90
2010,08,15,06,03,18.90
2010,08,15,06,04,18.90
2010,08,15,06,05,18.90
2010,08,15,06,06,18.90
2010,08,15,06,07,18.90
2010,08,15,06,08,18.90
2010,08,15,06,09,18.90
2010,08,15,06,10,18.90
2010,08,15,06,11,18.90
2010,08,15,06,12,19.00
2010,08,15,06,13,19.00
2010,08,15,06,14,19.00
2010,08,15,06,15,18.90
2010,08,15,06,16,18.90
2010,08,15,06,17,18.90
2010,08,15,06,18,18.90
2010,08,15,06,19,18.90
2010,08,15,06,20,18.80
2010,08,15,06,21,18.80
2010,08,15,06,22,18.70
2010,08,15,06,23,18.60
2010,08,15,06,24,18.60
2010,08,15,06,25,18.50
2010,08,15,06,26,18.40
2010,08,15,06,27,18.40
2010,08,15,06,28,18.40
2010,08,15,06,29,18.30
2010,08,15,06,30,18.30
2010,08,15,06,31,18.30
2010,08,15,06,32,18.20
2010,08,15,06,33,18.20
2010,08,15,06,34,18.20
2010,08,15,06,35,18.20
2010,08,15,06,36,18.20
2010,08,15,06,37,18.20
2010,08,15,06,38,18.20
2010,08,15,06,39,18.20
2010,08,15,06,40,18.20
2010,08,15,06,41,18.20
2010,08,15,06,42,18.20
2010,08,15,06,43,18.20
2010,08,15,06,44,18.20
2010,08,15,06,45,18.20
2010,08,15,06,46,18.20
2010,08,15,06,47,18.30
2010,08,15,06,48,18.40
2010,08,15,06,49,18.40
2010,08,15,06,50,18.50
2010,08,15,06,51,18.50
2010,08,15,06,52,18.50
2010,08,15,06,53,18.60
2010,08,15,06,54,18.60
2010,08,15,06,55,18.60
2010,08,15,06,56,18.60
2010,08,15,06,57,18.60
2010,08,15,06,58,18.60
2010,08,15,06,59,18.60
2010,08,15,07,00,18.60
2010,08,15,07,01,18.50
2010,08,15,07,02,18.50
2010,08,15,07,03,18.40
2010,08,15,07,04,18.30
2010,08,15,07,05,18.20
2010,08,15,07,06,18.20
2010,08,15,07,07,18.20
2010,08,15,07,08,18.30
2010,08,15,07,09,18.30
2010,08,15,07,10,18.40
2010,08,15,07,11,18.50
2010,08,15,07,12,18.50
2010,08,15,07,13,18.60
2010,08,15,07,14,18.60
2010,08,15,07,15,18.60
2010,08,15,07,16,18.60
2010,08,15,07,17,18.60
2010,08,15,07,18,18.50
2010,08,15,07,19,18.50
2010,08,15,07,20,18.50
2010,08,15,07,21,18.50
2010,08,15,07,22,18.40
2010,08,15,07,23,18.40
2010,08,15,07,24,18.50
2010,08,15,07,25,18.50
2010,08,15,07,26,18.60
2010,08,15,07,27,18.60
2010,08,15,07,28,18.70
2010,08,15,07,29,18.70
2010,08,15,07,30,18.70
2010,08,15,07,31,18.80
2010,08,15,07,32,18.80
2010,08,15,07,33,18.80
2010,08,15,07,34,18.90
2010,08,15,07,35,18.90
2010,08,15,07,36,18.90
2010,08,15,07,37,18.90
2010,08,15,07,38,18.90
2010,08,15,07,39,18.90
2010,08,15,07,40,18.90
2010,08,15,07,41,18.90
2010,08,15,07,42,18.90
2010,08,15,07,43,18.90
2010,08,15,07,44,18.90
2010,08,15,07,45,18.90
2010,08,15,07,46,18.90
2010,08,15,07,47,18.90
2010,08,15,07,48,18.90
2010,08,15,07,49,18.90
2010,08,15,07,50,19.00
2010,08,15,07,51,19.10
2010,08,15,07,52,19.10
2010,08,15,07,53,19.20
2010,08,15,07,54,19.30
2010,08,15,07,55,19.40
2010,08,15,07,56,19.40
2010,08,15,07,57,19.50
2010,08,15,07,58,19.60
2010,08,15,07,59,19.70
2010,08,15,08,00,19.80
2010,08,15,08,01,19.90
2010,08,15,08,02,19.90
2010,08,15,08,03,19.90
2010,08,15,08,04,20.00
2010,08,15,08,05,20.10
2010,08,15,08,06,20.20
2010,08,15,08,07,20.20
2010,08,15,08,08,20.20
2010,08,15,08,09,20.20
2010,08,15,08,10,20.20
2010,08,15,08,11,20.30
2010,08,15,08,12,20.30
2010,08,15,08,13,20.30
2010,08,15,08,14,20.30
2010,08,15,08,15,20.30
2010,08,15,08,16,20.30
2010,08,15,08,17,20.20
2010,08,15,08,18,20.20
2010,08,15,08,19,20.20
2010,08,15,08,20,20.20
2010,08,15,08,21,20.20
2010,08,15,08,22,20.30
2010,08,15,08,23,20.30
2010,08,15,08,24,20.40
2010,08,15,08,25,20.40
2010,08,15,08,26,20.50
2010,08,15,08,27,20.50
2010,08,15,08,28,20.50
2010,08,15,08,29,20.60
2010,08,15,08,30,20.60
2010,08,15,08,31,20.60
2010,08,15,08,32,20.70
2010,08,15,08,33,20.70
2010,08,15,08,34,20.80
2010,08,15,08,35,20.80
2010,08,15,08,36,20.80
2010,08,15,08,37,20.90
2010,08,15,08,38,20.90
2010,08,15,08,39,20.90
2010,08,15,08,40,21.00
2010,08,15,08,41,20.90
2010,08,15,08,42,21.00
2010,08,15,08,43,21.00
2010,08,15,08,44,21.00
2010,08,15,08,45,21.00
2010,08,15,08,46,21.10
2010,08,15,08,47,21.10
2010,08,15,08,48,21.10
2010,08,15,08,49,21.20
2010,08,15,08,50,21.20
2010,08,15,08,51,21.20
2010,08,15,08,52,21.20
2010,08,15,08,53,21.20
2010,08,15,08,54,21.20
2010,08,15,08,55,21.20
2010,08,15,08,56,21.20
2010,08,15,08,57,21.30
2010,08,15,08,58,21.30
2010,08,15,08,59,21.30
2010,08,15,09,00,21.30
2010,08,15,09,01,21.30
2010,08,15,09,02,21.30
2010,08,15,09,03,21.30
2010,08,15,09,04,21.40
2010,08,15,09,05,21.40
2010,08,15,09,06,21.60
2010,08,15,09,07,21.60
2010,08,15,09,08,21.70
2010,08,15,09,09,21.80
2010,08,15,09,10,21.90
2010,08,15,09,11,22.00
2010,08,15,09,12,22.10
2010,08,15,09,13,22.20
2010,08,15,09,14,22.30
2010,08,15,09,15,22.40
2010,08,15,09,16,22.50
2010,08,15,09,17,22.50
2010,08,15,09,18,22.50
2010,08,15,09,19,22.50
2010,08,15,09,20,22.50
2010,08,15,09,21,22.50
2010,08,15,09,22,22.40
2010,08,15,09,23,22.40
2010,08,15,09,24,22.30
2010,08,15,09,25,22.30
2010,08,15,09,26,22.30
2010,08,15,09,27,22.30
2010,08,15,09,28,22.40
2010,08,15,09,29,22.40
2010,08,15,09,30,22.40
2010,08,15,09,31,22.40
2010,08,15,09,32,22.40
2010,08,15,09,33,22.40
2010,08,15,09,34,22.40
2010,08,15,09,35,22.40
2010,08,15,09,36,22.40
2010,08,15,09,37,22.50
2010,08,15,09,38,22.50
2010,08,15,09,39,22.60
2010,08,15,09,40,22.70
2010,08,15,09,41,22.70
2010,08,15,09,42,22.70
2010,08,15,09,43,22.80
2010,08,15,09,44,22.80
2010,08,15,09,45,22.90
2010,08,15,09,46,22.90
2010,08,15,09,47,23.00
2010,08,15,09,48,23.10
2010,08,15,09,49,23.10
2010,08,15,09,50,23.10
2010,08,15,09,51,23.10
2010,08,15,09,52,23.10
2010,08,15,09,53,23.10
2010,08,15,09,54,23.10
2010,08,15,09,55,23.10
2010,08,15,09,56,23.10
2010,08,15,09,57,23.10
2010,08,15,09,58,23.10
2010,08,15,09,59,23.20
2010,08,15,10,00,23.20
2010,08,15,10,01,23.20
2010,08,15,10,02,23.20
2010,08,15,10,03,23.20
2010,08,15,10,04,23.30
2010,08,15,10,05,23.30
2010,08,15,10,06,23.30
2010,08,15,10,07,23.30
2010,08,15,10,08,23.30
2010,08,15,10,09,23.40
2010,08,15,10,10,23.50
2010,08,15,10,11,23.60
2010,08,15,10,12,23.70
2010,08,15,10,13,23.70
2010,08,15,10,14,23.70
2010,08,15,10,15,23.70
2010,08,15,10,16,23.70
2010,08,15,10,17,23.70
2010,08,15,10,18,23.80
2010,08,15,10,19,23.80
2010,08,15,10,20,23.80
2010,08,15,10,21,23.80
2010,08,15,10,22,23.90
2010,08,15,10,23,23.90
2010,08,15,10,24,23.90
2010,08,15,10,25,23.90
2010,08,15,10,26,23.90
2010,08,15,10,27,23.90
2010,08,15,10,28,23.80
2010,08,15,10,29,23.90
2010,08,15,10,30,23.90
2010,08,15,10,31,24.00
2010,08,15,10,32,24.10
2010,08,15,10,33,24.10
2010,08,15,10,34,24.10
2010,08,15,10,35,24.10
2010,08,15,10,36,24.10
2010,08,15,10,37,24.10
2010,08,15,10,38,24.10
2010,08,15,10,39,24.10
2010,08,15,10,40,24.20
2010,08,15,10,41,24.30
2010,08,15,10,42,24.40
2010,08,15,10,43,24.50
2010,08,15,10,44,24.50
2010,08,15,10,45,24.50
2010,08,15,10,46,24.50
2010,08,15,10,47,24.60
2010,08,15,10,48,24.60
2010,08,15,10,49,24.70
2010,08,15,10,50,24.70
2010,08,15,10,51,24.80
2010,08,15,10,52,24.90
2010,08,15,10,53,24.90
2010,08,15,10,54,25.00
2010,08,15,10,55,25.00
2010,08,15,10,56,25.00
2010,08,15,10,57,25.00
2010,08,15,10,58,24.90
2010,08,15,10,59,24.90
2010,08,15,11,00,25.00
2010,08,15,11,01,25.00
2010,08,15,11,02,25.00
2010,08,15,11,03,25.00
2010,08,15,11,04,25.10
2010,08,15,11,05,25.10
2010,08,15,11,06,25.10
2010,08,15,11,07,25.10
2010,08,15,11,08,25.10
2010,08,15,11,09,25.10
2010,08,15,11,10,25.10
2010,08,15,11,11,25.10
2010,08,15,11,12,25.20
2010,08,15,11,13,25.20
2010,08,15,11,14,25.30
2010,08,15,11,15,25.30
2010,08,15,11,16,25.40
2010,08,15,11,17,25.50
2010,08,15,11,18,25.60
2010,08,15,11,19,25.70
2010,08,15,11,20,25.70
2010,08,15,11,21,25.80
2010,08,15,11,22,25.90
2010,08,15,11,23,25.90
2010,08,15,11,24,26.00
2010,08,15,11,25,26.10
2010,08,15,11,26,26.10
2010,08,15,11,27,26.10
2010,08,15,11,28,26.20
2010,08,15,11,29,26.10
2010,08,15,11,30,26.10
2010,08,15,11,31,26.10
2010,08,15,11,32,26.00
2010,08,15,11,33,25.90
2010,08,15,11,34,25.90
2010,08,15,11,35,25.90
2010,08,15,11,36,25.90
2010,08,15,11,37,25.90
2010,08,15,11,38,25.90
2010,08,15,11,39,25.90
2010,08,15,11,40,25.90
2010,08,15,11,41,26.00
2010,08,15,11,42,26.10
2010,08,15,11,43,26.20
2010,08,15,11,44,26.20
2010,08,15,11,45,26.20
2010,08,15,11,46,26.30
2010,08,15,11,47,26.30
2010,08,15,11,48,26.40
2010,08,15,11,49,26.40
2010,08,15,11,50,26.50
2010,08,15,11,51,26.60
2010,08,15,11,52,26.60
2010,08,15,11,53,26.60
2010,08,15,11,54,26.60
2010,08,15,11,55,26.60
2010,08,15,11,56,26.60
2010,08,15,11,57,26.60
2010,08,15,11,58,26.60
2010,08,15,11,59,26.50
2010,08,15,12,00,26.40
2010,08,15,12,01,26.40
2010,08,15,12,02,26.40
2010,08,15,12,03,26.40
2010,08,15,12,04,26.50
2010,08,15,12,05,26.60
2010,08,15,12,06,26.60
2010,08,15,12,07,26.70
2010,08,15,12,08,26.70
2010,08,15,12,09,26.70
2010,08,15,12,10,26.70
2010,08,15,12,11,26.70
2010,08,15,12,12,26.70
2010,08,15,12,13,26.60
2010,08,15,12,14,26.60
2010,08,15,12,15,26.60
2010,08,15,12,16,26.60
2010,08,15,12,17,26.60
2010,08,15,12,18,26.60
2010,08,15,12,19,26.70
2010,08,15,12,20,26.70
2010,08,15,12,21,26.60
2010,08,15,12,22,26.60
2010,08,15,12,23,26.60
2010,08,15,12,24,26.60
2010,08,15,12,25,26.70
2010,08,15,12,26,26.70
2010,08,15,12,27,26.70
2010,08,15,12,28,26.80
2010,08,15,12,29,26.80
2010,08,15,12,30,26.80
2010,08,15,12,31,26.90
2010,08,15,12,32,26.90
2010,08,15,12,33,26.90
2010,08,15,12,34,26.90
2010,08,15,12,35,26.90
2010,08,15,12,36,26.90
2010,08,15,12,37,27.00
2010,08,15,12,38,27.10
2010,08,15,12,39,27.10
2010,08,15,12,40,27.10
2010,08,15,12,41,27.20
2010,08,15,12,42,27.30
2010,08,15,12,43,27.30
2010,08,15,12,44,27.30
2010,08,15,12,45,27.30
2010,08,15,12,46,27.40
2010,08,15,12,47,27.50
2010,08,15,12,48,27.60
2010,08,15,12,49,27.70
2010,08,15,12,50,27.70
2010,08,15,12,51,27.70
2010,08,15,12,52,27.60
2010,08,15,12,53,27.60
2010,08,15,12,54,27.60
2010,08,15,12,55,27.60
2010,08,15,12,56,27.60
2010,08,15,12,57,27.60
2010,08,15,12,58,27.60
2010,08,15,12,59,27.70
2010,08,15,13,00,27.70
2010,08,15,13,01,27.80
2010,08,15,13,02,27.90
2010,08,15,13,03,27.90
2010,08,15,13,04,28.00
2010,08,15,13,05,28.00
2010,08,15,13,06,28.10
2010,08,15,13,07,28.20
2010,08,15,13,08,28.20
2010,08,15,13,09,28.30
2010,08,15,13,10,28.30
2010,08,15,13,11,28.30
2010,08,15,13,12,28.40
2010,08,15,13,13,28.40
2010,08,15,13,14,28.50
2010,08,15,13,15,28.60
2010,08,15,13,16,28.70
2010,08,15,13,17,28.70
2010,08,15,13,18,28.80
2010,08,15,13,19,28.90
2010,08,15,13,20,28.90
2010,08,15,13,21,28.80
2010,08,15,13,22,28.80
2010,08,15,13,23,28.80
2010,08,15,13,24,28.70
2010,08,15,13,25,28.60
2010,08,15,13,26,28.60
2010,08,15,13,27,28.60
2010,08,15,13,28,28.50
2010,08,15,13,29,28.40
2010,08,15,13,30,28.30
2010,08,15,13,31,28.30
2010,08,15,13,32,28.20
2010,08,15,13,33,28.20
2010,08,15,13,34,28.20
2010,08,15,13,35,28.20
2010,08,15,13,36,28.10
2010,08,15,13,37,28.10
2010,08,15,13,38,28.10
2010,08,15,13,39,28.10
2010,08,15,13,40,28.10
2010,08,15,13,41,28.10
2010,08,15,13,42,28.10
2010,08,15,13,43,28.10
2010,08,15,13,44,28.10
2010,08,15,13,45,28.10
2010,08,15,13,46,28.10
2010,08,15,13,47,28.10
2010,08,15,13,48,28.20
2010,08,15,13,49,28.20
2010,08,15,13,50,28.30
2010,08,15,13,51,28.30
2010,08,15,13,52,28.30
2010,08,15,13,53,28.40
2010,08,15,13,54,28.40
2010,08,15,13,55,28.50
2010,08,15,13,56,28.60
2010,08,15,13,57,28.60
2010,08,15,13,58,28.70
2010,08,15,13,59,28.80
2010,08,15,14,00,28.90
2010,08,15,14,01,28.90
2010,08,15,14,02,28.90
2010,08,15,14,03,28.90
2010,08,15,14,04,28.90
2010,08,15,14,05,28.80
2010,08,15,14,06,28.80
2010,08,15,14,07,28.90
2010,08,15,14,08,28.90
2010,08,15,14,09,28.90
2010,08,15,14,10,28.90
2010,08,15,14,11,28.90
2010,08,15,14,12,29.00
2010,08,15,14,13,29.20
2010,08,15,14,14,29.30
2010,08,15,14,15,29.50
2010,08,15,14,16,29.60
2010,08,15,14,17,29.60
2010,08,15,14,18,29.60
2010,08,15,14,19,29.60
2010,08,15,14,20,29.60
2010,08,15,14,21,29.40
2010,08,15,14,22,29.40
2010,08,15,14,23,29.30
2010,08,15,14,24,29.30
2010,08,15,14,25,29.40
2010,08,15,14,26,29.30
2010,08,15,14,27,29.30
2010,08,15,14,28,29.30
2010,08,15,14,29,29.10
2010,08,15,14,30,29.10
2010,08,15,14,31,29.10
2010,08,15,14,32,29.00
2010,08,15,14,33,29.00
2010,08,15,14,34,29.10
2010,08,15,14,35,29.10
2010,08,15,14,36,29.20
2010,08,15,14,37,29.30
2010,08,15,14,38,29.40
2010,08,15,14,39,29.50
2010,08,15,14,40,29.60
2010,08,15,14,41,29.60
2010,08,15,14,42,29.50
2010,08,15,14,43,29.50
2010,08,15,14,44,29.50
2010,08,15,14,45,29.40
2010,08,15,14,46,29.30
2010,08,15,14,47,29.30
2010,08,15,14,48,29.30
2010,08,15,14,49,29.30
2010,08,15,14,50,29.40
2010,08,15,14,51,29.50
2010,08,15,14,52,29.50
2010,08,15,14,53,29.60
2010,08,15,14,54,29.50
2010,08,15,14,55,29.50
2010,08,15,14,56,29.50
2010,08,15,14,57,29.40
2010,08,15,14,58,29.40
2010,08,15,14,59,29.40
2010,08,15,15,00,29.40
2010,08,15,15,01,29.40
2010,08,15,15,02,29.50
2010,08,15,15,03,29.60
2010,08,15,15,04,29.70
2010,08,15,15,05,29.70
2010,08,15,15,06,29.70
2010,08,15,15,07,29.70
2010,08,15,15,08,29.70
2010,08,15,15,09,29.60
2010,08,15,15,10,29.60
2010,08,15,15,11,29.60
2010,08,15,15,12,29.70
2010,08,15,15,13,29.70
2010,08,15,15,14,29.70
2010,08,15,15,15,29.80
2010,08,15,15,16,29.80
2010,08,15,15,17,29.80
2010,08,15,15,18,29.90
2010,08,15,15,19,29.80
2010,08,15,15,20,29.80
2010,08,15,15,21,29.80
2010,08,15,15,22,29.80
2010,08,15,15,23,29.80
2010,08,15,15,24,29.90
2010,08,15,15,25,30.00
2010,08,15,15,26,30.10
2010,08,15,15,27,30.10
2010,08,15,15,28,30.00
2010,08,15,15,29,29.90
2010,08,15,15,30,29.90
2010,08,15,15,31,30.00
2010,08,15,15,32,30.10
2010,08,15,15,33,30.10
2010,08,15,15,34,30.20
2010,08,15,15,35,30.30
2010,08,15,15,36,30.30
2010,08,15,15,37,30.30
2010,08,15,15,38,30.30
2010,08,15,15,39,30.30
2010,08,15,15,40,30.30
2010,08,15,15,41,30.40
2010,08,15,15,42,30.40
2010,08,15,15,43,30.40
2010,08,15,15,44,30.40
2010,08,15,15,45,30.40
2010,08,15,15,46,30.40
2010,08,15,15,47,30.50
2010,08,15,15,48,30.60
2010,08,15,15,49,30.70
2010,08,15,15,50,30.80
2010,08,15,15,51,30.80
2010,08,15,15,52,31.00
2010,08,15,15,53,31.00
2010,08,15,15,54,31.10
2010,08,15,15,55,31.10
2010,08,15,15,56,31.10
2010,08,15,15,57,31.10
2010,08,15,15,58,31.10
2010,08,15,15,59,31.10
2010,08,15,16,00,31.10
2010,08,15,16,01,31.10
2010,08,15,16,02,31.10
2010,08,15,16,03,31.10
2010,08,15,16,04,31.10
2010,08,15,16,05,31.10
2010,08,15,16,06,31.10
2010,08,15,16,07,31.00
2010,08,15,16,08,31.10
2010,08,15,16,09,31.10
2010,08,15,16,10,31.10
2010,08,15,16,11,31.20
2010,08,15,16,12,31.20
2010,08,15,16,13,31.20
2010,08,15,16,14,31.20
2010,08,15,16,15,31.20
2010,08,15,16,16,31.20
2010,08,15,16,17,31.20
2010,08,15,16,18,31.20
2010,08,15,16,19,31.20
2010,08,15,16,20,31.20
2010,08,15,16,21,31.10
2010,08,15,16,22,31.10
2010,08,15,16,23,31.10
2010,08,15,16,24,31.00
2010,08,15,16,25,31.00
2010,08,15,16,26,31.10
2010,08,15,16,27,31.10
2010,08,15,16,28,31.20
2010,08,15,16,29,31.20
2010,08,15,16,30,31.30
2010,08,15,16,31,31.30
2010,08,15,16,32,31.30
2010,08,15,16,33,31.30
2010,08,15,16,34,31.30
2010,08,15,16,35,31.30
2010,08,15,16,36,31.20
2010,08,15,16,37,31.10
2010,08,15,16,38,31.00
2010,08,15,16,39,31.00
2010,08,15,16,40,30.90
2010,08,15,16,41,30.80
2010,08,15,16,42,30.80
2010,08,15,16,43,30.80
2010,08,15,16,44,30.90
2010,08,15,16,45,30.90
2010,08,15,16,46,31.00
2010,08,15,16,47,31.00
2010,08,15,16,48,31.10
2010,08,15,16,49,31.10
2010,08,15,16,50,31.10
2010,08,15,16,51,31.20
2010,08,15,16,52,31.20
2010,08,15,16,53,31.20
2010,08,15,16,54,31.30
2010,08,15,16,55,31.30
2010,08,15,16,56,31.40
2010,08,15,16,57,31.40
2010,08,15,16,58,31.40
2010,08,15,16,59,31.30
2010,08,15,17,00,31.30
2010,08,15,17,01,31.30
2010,08,15,17,02,31.30
2010,08,15,17,03,31.30
2010,08,15,17,04,31.40
2010,08,15,17,05,31.40
2010,08,15,17,06,31.50
2010,08,15,17,07,31.60
2010,08,15,17,08,31.70
2010,08,15,17,09,31.70
2010,08,15,17,10,31.70
2010,08,15,17,11,31.70
2010,08,15,17,12,31.60
2010,08,15,17,13,31.60
2010,08,15,17,14,31.60
2010,08,15,17,15,31.60
2010,08,15,17,16,31.60
2010,08,15,17,17,31.60
2010,08,15,17,18,31.60
2010,08,15,17,19,31.60